GW3823 Weather Reports


Display with metric or nautical units.
time (UTC)temp
F
wind
direction
speed
MPH
gust
MPH
rain 1hr
in
rain 24hr
in
rain mn
in
humidity
%
barometer
mb
20260509112805 40 44 6.0 8.0 0.00 0.00 0.00 64 1010.0
20260509112307 40 56 4.0 7.0 0.00 0.00 0.00 64 1015.3
20260509111306 41 55 3.0 9.0 0.00 0.00 0.00 65 1015.8
20260509110806 41 64 6.0 9.0 0.00 0.00 0.00 66 1010.1
20260509110306 40 40 6.0 8.0 0.00 0.00 0.00 66 1009.8
20260509105806 41 46 6.0 9.0 0.00 0.00 0.00 65 1009.8
20260509105306 41 46 5.0 13.0 0.00 0.00 0.00 63 1009.9
20260509104806 41 54 6.0 13.0 0.00 0.00 0.00 62 1009.7
20260509104305 41 62 7.0 9.0 0.00 0.00 0.00 63 1009.9
20260509103805 42 39 5.0 9.0 0.00 0.00 0.00 63 1018.0
20260509103305 42 55 5.0 10.0 0.00 0.00 0.00 62 1009.8
20260509102306 43 30 2.0 7.0 0.00 0.00 0.00 63 1009.8
20260509101805 42 49 5.0 7.0 0.00 0.00 0.00 62 1009.6
20260509101306 42 26 2.0 9.0 0.00 0.00 0.00 62 1009.8
20260509100305 42 44 3.0 5.0 0.00 0.00 0.00 61 1009.7
20260509095306 43 78 3.0 6.0 0.00 0.00 0.00 65 1009.9
20260509094805 43 54 3.0 5.0 0.00 0.00 0.00 63 1009.7
20260509094306 44 31 3.0 7.0 0.00 0.00 0.00 60 1009.6
20260509093805 44 66 4.0 7.0 0.00 0.00 0.00 59 1009.7
20260509093305 43 72 4.0 6.0 0.00 0.00 0.00 60 1009.4
20260509092805 43 61 1.0 5.0 0.00 0.00 0.00 63 1009.5
20260509092306 43 45 2.0 3.0 0.00 0.00 0.00 64 1009.7
20260509091806 44 325 0.0 1.0 0.00 0.00 0.00 64 1009.5
20260509091305 44 186 0.0 0.0 0.00 0.00 0.00 54 1014.3
20260509090805 44 124 0.0 0.0 0.00 0.00 0.00 63 1009.5
20260509090305 44 135 0.0 1.0 0.00 0.00 0.00 61 1014.7
20260509085805 44 69 0.0 1.0 0.00 0.00 0.00 50 1009.7
20260509085306 46 0 1.0 1.0 0.00 0.00 0.00 62 1009.4
20260509084805 44 349 1.0 1.0 0.00 0.00 0.00 52 1009.6
20260509084306 45 204 0.0 2.0 0.00 0.00 0.00 61 1009.5
20260509083806 45 23 1.0 2.0 0.00 0.00 0.00 54 1009.6
20260509083305 45 27 0.0 2.0 0.00 0.00 0.00 59 1009.6
20260509082805 45 348 1.0 5.0 0.00 0.00 0.00 58 1013.0
20260509082307 46 25 3.0 5.0 0.00 0.00 0.00 55 1009.5
20260509081305 46 71 2.0 6.0 0.00 0.00 0.00 56 1009.6
20260509075805 47 72 1.0 2.0 0.00 0.00 0.00 59 1009.5
20260509075306 46 38 1.0 2.0 0.00 0.00 0.00 58 1009.5
20260509074306 45 109 0.0 3.0 0.00 0.00 0.00 58 1009.7
20260509072306 46 81 1.0 5.0 0.00 0.00 0.00 57 1009.7
20260509071805 47 38 2.0 5.0 0.00 0.00 0.00 55 1009.7
20260509071305 47 59 4.0 6.0 0.00 0.00 0.00 51 1009.7
20260509070806 48 33 2.0 6.0 0.00 0.00 0.00 53 1009.8
20260509070305 48 55 5.0 7.0 0.00 0.00 0.00 52 1009.6
20260509065805 48 47 5.0 10.0 0.00 0.00 0.00 49 1009.7
20260509064305 48 54 4.0 7.0 0.00 0.00 0.00 48 1009.5
20260509063805 48 60 5.0 7.0 0.00 0.00 0.00 41 1009.6
20260509063305 48 61 3.0 8.0 0.00 0.00 0.00 48 1009.4
20260509062306 49 26 3.0 8.0 0.00 0.00 0.00 53 1009.4
20260509061305 49 49 6.0 10.0 0.00 0.00 0.00 49 1009.4
20260509060805 49 64 5.0 9.0 0.00 0.00 0.00 51 1009.3
20260509060305 49 44 7.0 10.0 0.00 0.00 0.00 48 1009.5
20260509055805 49 61 6.0 8.0 0.00 0.00 0.00 52 1009.5
20260509054805 49 40 5.0 8.0 0.00 0.00 0.00 52 1009.3
20260509054305 49 49 4.0 7.0 0.00 0.00 0.00 46 1009.5
20260509053805 50 56 5.0 8.0 0.00 0.00 0.00 51 1009.5
20260509052805 49 60 5.0 6.0 0.00 0.00 0.00 50 1009.5
20260509052307 49 58 4.0 7.0 0.00 0.00 0.00 52 1013.6
20260509051805 50 57 4.0 8.0 0.00 0.00 0.00 51 1009.6
20260509051305 50 22 3.0 6.0 0.00 0.00 0.00 52 1009.5
20260509050805 50 41 3.0 7.0 0.00 0.00 0.00 53 1009.7
20260509050305 49 57 5.0 7.0 0.00 0.00 0.00 51 1009.6
20260509045306 51 59 5.0 7.0 0.00 0.00 0.00 51 1011.1
20260509044805 51 25 5.0 7.0 0.00 0.00 0.00 32 1012.1
20260509044304 50 51 3.0 7.0 0.00 0.00 0.00 51 1017.1
20260509043305 52 23 2.0 5.0 0.00 0.00 0.00 50 1009.5
20260509042805 51 67 3.0 8.0 0.00 0.00 0.00 49 1010.8
20260509042307 50 56 6.0 9.0 0.00 0.00 0.00 49 1009.5
20260509041805 50 49 7.0 10.0 0.00 0.00 0.00 49 1009.6
20260509041305 52 50 7.0 13.0 0.00 0.00 0.00 49 1011.3
20260509040805 51 61 6.0 10.0 0.00 0.00 0.00 50 1010.9
20260509040305 53 67 8.0 9.0 0.00 0.00 0.00 50 1017.1
20260509035805 50 55 6.0 14.0 0.00 0.00 0.00 38 1009.8
20260509035306 53 60 6.0 15.0 0.00 0.00 0.00 48 1011.3
20260509033806 51 57 11.0 18.0 0.00 0.00 0.00 37 1010.0
20260509033305 53 78 5.0 8.0 0.00 0.00 0.00 49 1011.1
20260509032805 53 48 5.0 8.0 0.00 0.00 0.00 38 1010.7
20260509032306 52 65 4.0 8.0 0.00 0.00 0.00 48 1010.0
20260509031805 52 37 2.0 5.0 0.00 0.00 0.00 48 1009.6
20260509031305 54 57 1.0 3.0 0.00 0.00 0.00 48 1010.9
20260509030805 54 11 1.0 3.0 0.00 0.00 0.00 47 1010.4
20260509030305 54 330 1.0 5.0 0.00 0.00 0.00 47 1009.8
20260509024804 56 288 1.0 6.0 0.00 0.00 0.00 46 1010.3
20260509024305 55 54 4.0 5.0 0.00 0.00 0.00 46 1009.7
20260509023805 55 27 1.0 2.0 0.00 0.00 0.00 44 1009.4
20260509022805 58 165 1.0 3.0 0.00 0.00 0.00 42 1010.4
20260509021805 58 19 1.0 7.0 0.00 0.00 0.00 38 1009.6
20260509021305 58 72 5.0 10.0 0.00 0.00 0.00 36 1009.1
20260509020304 58 248 2.0 13.0 0.00 0.00 0.00 35 1008.4
20260509015805 61 72 9.0 12.0 0.00 0.00 0.00 35 1009.8
20260509015306 60 31 3.0 5.0 0.00 0.00 0.00 36 1009.3
20260509014804 60 206 1.0 6.0 0.00 0.00 0.00 36 1008.8
20260509014305 59 231 1.0 5.0 0.00 0.00 0.00 28 1008.1
20260509013804 62 216 3.0 8.0 0.00 0.00 0.00 34 1009.8
20260509013304 61 65 5.0 7.0 0.00 0.00 0.00 33 1008.9
20260509012804 61 60 3.0 7.0 0.00 0.00 0.00 31 1008.8
20260509012307 60 38 1.0 6.0 0.00 0.00 0.00 34 1007.9
20260509011805 63 39 3.0 5.0 0.00 0.00 0.00 32 1009.8
20260509010804 62 9 2.0 5.0 0.00 0.00 0.00 32 1008.9
20260509010305 61 193 1.0 8.0 0.00 0.00 0.00 29 1008.3
20260509005805 63 167 3.0 8.0 0.00 0.00 0.00 20 1009.7
20260509005306 62 308 2.0 7.0 0.00 0.00 0.00 30 1009.3
20260509004305 62 264 5.0 15.0 0.00 0.00 0.00 28 1008.4
20260509003305 63 141 7.0 17.0 0.00 0.00 0.00 26 1008.3
20260509002306 65 259 4.0 10.0 0.00 0.00 0.00 26 1008.3
20260509001806 66 149 1.0 5.0 0.00 0.00 0.00 25 1009.1
20260509001304 64 190 2.0 13.0 0.00 0.00 0.00 26 1007.5
20260509000306 65 217 5.0 8.0 0.00 0.00 0.00 25 1009.7
20260508235806 72 181 7.0 8.0 0.00 0.00 0.00 26 1007.9
20260508235306 71 181 7.0 12.0 0.00 0.00 0.00 26 1012.8
20260508234805 71 198 6.0 21.0 0.00 0.00 0.00 26 1008.2
20260508234306 71 162 6.0 15.0 0.00 0.00 0.00 26 1007.9
20260508233805 72 156 6.0 15.0 0.00 0.00 0.00 27 1007.7
20260508233305 72 186 15.0 15.0 0.00 0.00 0.00 20 1007.9
20260508232805 72 186 15.0 15.0 0.00 0.00 0.00 20 1014.7
20260508232307 72 186 15.0 15.0 0.00 0.00 0.00 20 1007.8
20260508231805 72 186 15.0 15.0 0.00 0.00 0.00 20 1012.6
20260508231305 71 186 15.0 15.0 0.00 0.00 0.00 20 1007.8
20260508230805 72 186 15.0 15.0 0.00 0.00 0.00 25 1007.8
20260508230305 71 186 15.0 15.0 0.00 0.00 0.00 26 1007.8
20260508225805 72 186 15.0 15.0 0.00 0.00 0.00 27 1007.9
20260508225306 72 186 15.0 15.0 0.00 0.00 0.00 25 1012.7
20260508223805 72 186 15.0 15.0 0.00 0.00 0.00 25 1007.6
20260508223306 72 186 15.0 15.0 0.00 0.00 0.00 26 1007.8
20260508222805 71 186 15.0 15.0 0.00 0.00 0.00 26 1007.7
20260508221805 72 186 15.0 15.0 0.00 0.00 0.00 25 1007.7
20260508220804 72 132 5.0 18.0 0.00 0.00 0.00 26 1007.6
20260508220305 71 147 9.0 18.0 0.00 0.00 0.00 27 1007.8
20260508214805 71 160 10.0 24.0 0.00 0.00 0.00 26 1015.2
20260508214305 71 208 10.0 29.0 0.00 0.00 0.00 26 1007.8
20260508213805 71 228 9.0 14.0 0.00 0.00 0.00 27 1012.0
20260508212805 71 146 9.0 15.0 0.00 0.00 0.00 26 1012.3
20260508212306 71 156 7.0 15.0 0.00 0.00 0.00 27 1008.1
20260508211805 71 203 5.0 21.0 0.00 0.00 0.00 30 1008.1
20260508211305 70 192 5.0 21.0 0.00 0.00 0.00 31 1008.1
20260508210305 70 150 10.0 21.0 0.00 0.00 0.00 28 1008.1
20260508205804 70 168 7.0 14.0 0.00 0.00 0.00 29 1008.2
20260508205306 70 326 3.0 14.0 0.00 0.00 0.00 27 1008.3
20260508204805 70 198 5.0 28.0 0.00 0.00 0.00 25 1008.2
20260508204305 70 160 10.0 28.0 0.00 0.00 0.00 26 1008.0
20260508203805 70 160 5.0 24.0 0.00 0.00 0.00 29 1008.3
20260508203305 70 182 15.0 24.0 0.00 0.00 0.00 20 1008.4
20260508202805 70 85 6.0 16.0 0.00 0.00 0.00 27 1008.4
20260508201804 70 71 5.0 13.0 0.00 0.00 0.00 26 1008.4
20260508201305 70 24 4.0 12.0 0.00 0.00 0.00 29 1008.5
20260508200805 70 256 3.0 12.0 0.00 0.00 0.00 29 1008.5
20260508200305 70 172 6.0 14.0 0.00 0.00 0.00 30 1008.6
20260508195306 67 168 10.0 22.0 0.00 0.00 0.00 28 1008.6
20260508194805 67 179 7.0 20.0 0.00 0.00 0.00 30 1008.6
20260508194305 67 254 4.0 21.0 0.00 0.00 0.00 29 1017.2
20260508193805 67 161 9.0 21.0 0.00 0.00 0.00 30 1008.6
20260508193305 60 315 5.0 10.0 0.00 0.00 0.00 30 1008.7
20260508192805 67 151 3.0 20.0 0.00 0.00 0.00 24 1008.7
20260508191804 66 151 7.0 13.0 0.00 0.00 0.00 31 1008.8
20260508191305 66 183 7.0 16.0 0.00 0.00 0.00 31 1009.0
20260508190805 66 168 7.0 13.0 0.00 0.00 0.00 33 1017.3
20260508190304 66 200 5.0 25.0 0.00 0.00 0.00 30 1008.9
20260508185805 65 163 12.0 25.0 0.00 0.00 0.00 30 1008.9
20260508185306 65 160 9.0 23.0 0.00 0.00 0.00 31 1009.0
20260508184804 65 147 9.0 17.0 0.00 0.01 0.00 32 1008.9
20260508182804 65 141 9.0 24.0 0.00 0.01 0.00 32 1009.3
20260508182306 65 127 3.0 16.0 0.00 0.01 0.00 31 1009.2
20260508181805 65 174 7.0 22.0 0.00 0.01 0.00 34 1009.3
20260508181305 65 192 7.0 22.0 0.00 0.01 0.00 31 1009.4
20260508180805 65 160 6.0 15.0 0.00 0.01 0.00 30 1009.4
20260508180305 65 199 4.0 13.0 0.00 0.01 0.00 32 1009.4
20260508175805 63 242 3.0 20.0 0.00 0.01 0.00 32 1014.6
20260508175306 63 148 10.0 17.0 0.00 0.01 0.00 32 1009.8
20260508174805 63 156 10.0 22.0 0.00 0.01 0.00 31 1009.6
20260508174304 63 220 8.0 16.0 0.00 0.01 0.00 32 1009.6
20260508173805 63 165 9.0 14.0 0.00 0.01 0.00 31 1009.6
20260508173304 63 191 5.0 18.0 0.00 0.01 0.00 33 1009.8
20260508172805 63 169 8.0 18.0 0.00 0.01 0.00 33 1009.6
20260508172307 63 173 5.0 17.0 0.00 0.01 0.00 33 1018.7
20260508170304 63 113 6.0 22.0 0.00 0.01 0.00 33 1009.9
20260508165804 56 172 7.0 22.0 0.00 0.01 0.00 35 1010.0
20260508165306 56 145 3.0 17.0 0.00 0.01 0.00 36 1009.8
20260508164804 56 173 9.0 17.0 0.00 0.01 0.00 37 1009.7
20260508164304 56 185 4.0 28.0 0.00 0.01 0.00 37 1009.9
20260508163805 56 149 9.0 18.0 0.00 0.01 0.00 36 1009.9
20260508162307 56 148 9.0 20.0 0.00 0.01 0.00 38 1010.0
20260508161304 56 151 8.0 21.0 0.00 0.01 0.00 39 1009.9
20260508160805 56 167 9.0 20.0 0.00 0.01 0.00 39 1009.8
20260508154804 52 158 14.0 25.0 0.00 0.02 0.00 42 1010.0
20260508154304 51 161 11.0 25.0 0.00 0.02 0.00 43 1018.4
20260508153805 52 144 8.0 18.0 0.00 0.02 0.00 44 1010.0
20260508153304 52 157 11.0 16.0 0.00 0.02 0.00 47 1019.1
20260508152804 51 147 7.0 16.0 0.00 0.02 0.00 48 1010.2
20260508152306 51 163 5.0 14.0 0.00 0.02 0.00 47 1019.8
20260508151804 50 148 6.0 8.0 0.00 0.02 0.00 54 1010.2
20260508151304 50 140 3.0 6.0 0.00 0.02 0.00 53 1016.1
20260508150304 48 324 1.0 2.0 0.00 0.02 0.00 56 1016.7
20260508145306 45 10 1.0 5.0 0.00 0.02 0.00 63 1010.4
20260508144804 44 59 2.0 3.0 0.00 0.02 0.00 65 1010.6
20260508144304 44 51 2.0 7.0 0.00 0.02 0.00 66 1010.4
20260508143804 43 28 3.0 6.0 0.00 0.02 0.00 67 1010.4
20260508143304 42 32 3.0 6.0 0.00 0.02 0.00 68 1010.7
20260508142306 42 34 4.0 7.0 0.00 0.02 0.00 69 1010.7
20260508141805 41 47 5.0 7.0 0.00 0.02 0.00 71 1014.7
20260508141304 41 355 2.0 6.0 0.00 0.02 0.00 72 1010.8
20260508140804 40 37 3.0 6.0 0.00 0.02 0.00 74 1010.8
20260508140304 40 36 2.0 5.0 0.00 0.02 0.00 75 1010.9
20260508135804 38 49 4.0 7.0 0.00 0.02 0.00 77 1010.8
20260508135306 38 56 4.0 7.0 0.00 0.02 0.00 78 1010.8
20260508134804 38 44 3.0 6.0 0.00 0.02 0.00 78 1010.9
20260508134304 38 46 5.0 6.0 0.00 0.02 0.00 78 1010.9
20260508133804 37 48 5.0 7.0 0.00 0.02 0.00 79 1010.8
20260508132804 37 36 3.0 6.0 0.00 0.02 0.00 80 1010.8
20260508132306 36 56 5.0 6.0 0.00 0.02 0.00 82 1010.8
20260508131804 36 42 5.0 5.0 0.00 0.02 0.00 82 1010.7
20260508130304 36 33 4.0 6.0 0.00 0.02 0.00 82 1016.7
20260508125804 35 54 5.0 6.0 0.00 0.02 0.00 84 1010.8
20260508125306 35 51 3.0 5.0 0.00 0.02 0.00 83 1010.7
20260508124804 35 39 3.0 5.0 0.00 0.02 0.00 84 1010.6
20260508124304 35 41 3.0 6.0 0.00 0.02 0.00 84 1010.7
20260508123803 34 28 2.0 5.0 0.00 0.02 0.00 86 1015.0
20260508123304 35 40 3.0 5.0 0.00 0.02 0.00 85 1010.6
20260508122804 34 2 2.0 5.0 0.00 0.02 0.00 85 1014.6
20260508122307 35 359 2.0 5.0 0.00 0.02 0.00 83 1010.5
20260508121803 35 61 3.0 6.0 0.00 0.02 0.00 85 1010.4
20260508121303 35 54 4.0 5.0 0.00 0.02 0.00 84 1010.2
20260508120804 35 48 2.0 5.0 0.00 0.02 0.00 85 1010.2
20260508115804 34 58 3.0 6.0 0.00 0.02 0.00 85 1010.3
20260508115306 35 39 3.0 5.0 0.00 0.02 0.00 84 1010.3
20260508114805 35 28 3.0 5.0 0.00 0.02 0.00 85 1010.1
20260508114304 34 48 2.0 3.0 0.00 0.02 0.00 85 1019.2
20260508113804 34 49 2.0 3.0 0.00 0.02 0.00 85 1010.1
20260508113304 35 72 2.0 2.0 0.00 0.02 0.00 84 1015.9